Weather History for Marathon, FL

Change the Weather History Date:

Monday, February 11, 2013

  Actual Average Record
Temperature  
Mean Temperature 78 °F 71 °F  
Max Temperature 83 °F 77 °F 84 °F (2014)
Min Temperature 73 °F 66 °F 52 °F (2000)
Degree Days  
Heating Degree Days 0 1  
Month to date heating degree days 0 7  
Since 1 July heating degree days 6 66  
Cooling Degree Days 13 7  
Month to date cooling degree days 91 72  
Year to date cooling degree days 419 253  
Growing Degree Days 27 (Base 50)    
Moisture  
Dew Point 65 °F    
Average Humidity 66    
Maximum Humidity 74    
Minimum Humidity 58    
Precipitation  
Precipitation 0.00 in 0.10 in 0.08 in (2007)
Month to date precipitation 0.00 0.78  
Year to date precipitation 0.54 2.39  
Snow  
Snow 0.00 in - - ()
Month to date snowfall 0.0  
Since 1 July snowfall 0.0  
Snow Depth 0.00 in    
Sea Level Pressure  
Sea Level Pressure 30.14 in    
Wind  
Wind Speed 9 mph (ESE)    
Max Wind Speed 15 mph    
Max Gust Speed 23 mph    
Visibility 10 miles    
Events      
T = Trace of Precipitation, MM = Missing Value Source: NWS Daily Summary

Daily Weather History Graph

Daily Weather History Graph

Search for Another Location

Airport:

Trip Planner

Search our weather history database for the weather conditions in past years. The results will help you decide how hot, cold, wet, or windy it might be!

Date:

Astronomy

Feb. 11, 2013 Rise Set
Actual Time 7:00 AM EST 6:16 PM EST
Civil Twilight 6:37 AM EST 6:39 PM EST
Nautical Twilight 6:10 AM EST 7:06 PM EST
Astronomical Twilight 5:43 AM EST 7:33 PM EST
Moon 7:39 AM EST (2/11) 7:53 PM EST (2/11)
Length of Visible Light 12h 02m
Length of Day
11h 15m
Waxing Crescent, 3% of the Moon is Illuminated
Feb 11
Waxing Crescent
Feb 17
First Quarter
Feb 25
Full
Mar 4
Last Quarter
Mar 11
New

Hourly Weather History & Observations

Time (EST) Temp. Heat Index Dew Point Humidity Pressure Visibility Wind Dir Wind Speed Gust Speed Precip Events Conditions
12:53 AM 73.9 °F - 63.0 °F 68% 30.16 in 10.0 mi ESE 10.4 mph 18.4 mph N/A   Partly Cloudy
1:53 AM 73.9 °F - 63.0 °F 68% 30.15 in 10.0 mi ESE 10.4 mph 18.4 mph N/A   Mostly Cloudy
2:53 AM 73.9 °F - 63.0 °F 68% 30.14 in 10.0 mi ESE 10.4 mph 17.3 mph N/A   Partly Cloudy
3:53 AM 73.0 °F - 63.0 °F 71% 30.13 in 10.0 mi East 8.1 mph - N/A   Clear
4:32 AM 73.4 °F - 64.4 °F 73% 30.13 in 10.0 mi East 8.1 mph - N/A   Mostly Cloudy
4:53 AM 73.9 °F - 64.0 °F 71% 30.13 in 10.0 mi East 8.1 mph - N/A   Mostly Cloudy
5:53 AM 73.9 °F - 64.0 °F 71% 30.14 in 10.0 mi ESE 9.2 mph 17.3 mph N/A   Mostly Cloudy
6:53 AM 73.9 °F - 64.9 °F 73% 30.16 in 10.0 mi ESE 6.9 mph - N/A   Scattered Clouds
7:17 AM 75.2 °F - 64.4 °F 69% 30.16 in 10.0 mi ESE 6.9 mph - N/A   Mostly Cloudy
7:34 AM 75.2 °F - 64.4 °F 69% 30.16 in 10.0 mi ESE 10.4 mph 16.1 mph N/A   Overcast
7:53 AM 75.0 °F - 64.9 °F 71% 30.16 in 10.0 mi ESE 8.1 mph 17.3 mph N/A   Scattered Clouds
8:53 AM 75.9 °F - 64.9 °F 69% 30.17 in 10.0 mi SE 11.5 mph 19.6 mph N/A   Scattered Clouds
9:53 AM 79.0 °F - 66.0 °F 64% 30.18 in 10.0 mi ESE 12.7 mph 21.9 mph N/A   Mostly Cloudy
10:53 AM 77.0 °F - 64.9 °F 66% 30.20 in 10.0 mi SE 9.2 mph 17.3 mph N/A   Mostly Cloudy
11:53 AM 81.0 °F 82.7 °F 64.9 °F 58% 30.19 in 10.0 mi ESE 9.2 mph 16.1 mph N/A   Mostly Cloudy
12:53 PM 81.0 °F 82.7 °F 64.9 °F 58% 30.17 in 10.0 mi ESE 8.1 mph 16.1 mph N/A   Mostly Cloudy
1:53 PM 81.0 °F 82.7 °F 64.9 °F 58% 30.15 in 10.0 mi ESE 9.2 mph - N/A   Mostly Cloudy
2:53 PM 81.0 °F 82.7 °F 64.9 °F 58% 30.13 in 10.0 mi SE 8.1 mph - N/A   Clear
3:53 PM 79.0 °F - 64.9 °F 62% 30.11 in 10.0 mi ESE 10.4 mph 17.3 mph N/A   Partly Cloudy
4:53 PM 78.1 °F - 64.9 °F 64% 30.11 in 10.0 mi ESE 9.2 mph - N/A   Partly Cloudy
5:53 PM 75.9 °F - 64.9 °F 69% 30.11 in 10.0 mi ESE 9.2 mph - N/A   Partly Cloudy
6:53 PM 75.0 °F - 64.9 °F 71% 30.11 in 10.0 mi ESE 8.1 mph - N/A   Partly Cloudy
7:53 PM 75.0 °F - 66.0 °F 73% 30.12 in 10.0 mi Variable 5.8 mph - N/A   Clear
8:53 PM 75.0 °F - 64.9 °F 71% 30.12 in 10.0 mi ESE 9.2 mph - N/A   Clear
9:53 PM 75.0 °F - 66.0 °F 73% 30.12 in 10.0 mi ESE 9.2 mph 16.1 mph N/A   Clear
10:53 PM 75.0 °F - 64.9 °F 71% 30.12 in 10.0 mi ESE 9.2 mph 17.3 mph N/A   Partly Cloudy
11:53 PM 75.0 °F - 66.0 °F 73% 30.12 in 10.0 mi ESE 9.2 mph - N/A   Scattered Clouds